History for FTW, Texas on Wednesday, October 6, 2004

Jump to data by:

Latest visited Airport Codes: FTW

Data type:
 

« Previous Day | Next Day »

 
Daily Summary
Actual Average (KDFW) Record (KDFW)
Temperature
Mean Temperature 74 °F 71 °F  
Max Temperature 82 °F 81 °F 96 °F (1956)
Min Temperature 66 °F 60 °F 43 °F (1915)
Degree Days
Heating Degree Days 0 1  
Month to date heating degree days 6  
Since 1 July heating degree days 12  
Cooling Degree Days 8 7  
Month to date cooling degree days 44  
Year to date cooling degree days 2621  
Growing Degree Days 24 (Base 50)    
Moisture
Dew Point 63 °F    
Average Humidity 73    
Maximum Humidity 88    
Minimum Humidity 56    
Precipitation
Precipitation 0.00 in 0.11 in 3.44 in (1930)
Month to date precipitation 0.60  
Year to date precipitation 27.26  
Snow
Snow 0.00 in 0.00 in 0.00 in ()
Month to date snowfall 0.0  
Since 1 July snowfall 0.0  
Since 1 September snowfall 0.0  
Snow Depth -    
Sea Level Pressure
Sea Level Pressure 30.09 in    
Wind
Wind Speed 9 mph (SE)    
Max Wind Speed 18 mph    
Max Gust Speed 25 mph    
Visibility 10 miles    
Events Rain   

Click here for data from the nearest station with official NWS data (KDFW).
Key: T is trace of precipitation, MM is missing value
Source: NWS Daily Summary
Time (CDT) Temp. Dew Point Humidity Sea Level Pressure Visibility Wind Direction Wind Speed Gust Speed Precip. Events Conditions
12:53 AM 68.0 °F 60.1 °F 76% 30.11 in 10.0 miles ESE 5.8 mph - N/A   Clear
1:53 AM 68.0 °F 62.1 °F 81% 30.10 in 10.0 miles ESE 8.1 mph - 0.00 in   Partly Cloudy
2:53 AM 68.0 °F 63.0 °F 84% 30.10 in 9.0 miles ESE 6.9 mph - 0.00 in Rain Light Rain
3:53 AM 66.9 °F 63.0 °F 87% 30.09 in 8.0 miles East 6.9 mph - 0.00 in   Mostly Cloudy
4:12 AM 68.0 °F 62.6 °F 83% 30.11 in 9.0 miles ESE 6.9 mph - N/A   Mostly Cloudy
4:33 AM 66.2 °F 62.6 °F 88% 30.10 in 8.0 miles East 6.9 mph - N/A   Mostly Cloudy
4:53 AM 66.9 °F 63.0 °F 87% 30.08 in 8.0 miles East 8.1 mph - N/A   Mostly Cloudy
5:53 AM 66.9 °F 61.0 °F 81% 30.09 in 10.0 miles East 8.1 mph - N/A   Clear
6:53 AM 66.0 °F 60.1 °F 81% 30.10 in 10.0 miles East 8.1 mph - N/A   Scattered Clouds
7:53 AM 66.0 °F 59.0 °F 78% 30.12 in 10.0 miles ESE 8.1 mph - N/A   Mostly Cloudy
8:53 AM 66.9 °F 57.9 °F 73% 30.13 in 10.0 miles ESE 10.4 mph - N/A   Partly Cloudy
9:53 AM 69.1 °F 59.0 °F 70% 30.13 in 10.0 miles SE 12.7 mph - N/A   Clear
10:53 AM 73.9 °F 62.1 °F 66% 30.13 in 10.0 miles SE 9.2 mph - N/A   Partly Cloudy
11:53 AM 75.0 °F 64.0 °F 69% 30.12 in 10.0 miles SE 11.5 mph - N/A   Clear
12:53 PM 78.1 °F 64.0 °F 62% 30.10 in 10.0 miles SSE 11.5 mph 19.6 mph N/A   Clear
1:53 PM 79.0 °F 64.9 °F 62% 30.09 in 10.0 miles SSE 11.5 mph - N/A   Partly Cloudy
2:53 PM 80.1 °F 64.0 °F 58% 30.06 in 10.0 miles SSE 12.7 mph 21.9 mph N/A   Clear
3:53 PM 81.0 °F 64.0 °F 56% 30.05 in 10.0 miles SSE 15.0 mph - N/A   Partly Cloudy
4:53 PM 81.0 °F 64.0 °F 56% 30.04 in 10.0 miles SSE 12.7 mph - N/A   Partly Cloudy
5:53 PM 80.1 °F 64.9 °F 60% 30.05 in 10.0 miles SE 11.5 mph - N/A   Clear
6:53 PM 78.1 °F 66.0 °F 66% 30.05 in 8.0 miles SE 6.9 mph - N/A   Clear
7:53 PM 75.9 °F 66.0 °F 71% 30.06 in 8.0 miles SE 6.9 mph - N/A   Partly Cloudy
8:53 PM 75.0 °F 66.0 °F 73% 30.08 in 8.0 miles SSE 3.5 mph - N/A   Partly Cloudy
9:53 PM 73.9 °F 64.9 °F 73% 30.10 in 10.0 miles SSE 18.4 mph 25.3 mph 0.00 in Rain Light Rain
10:53 PM 71.1 °F 64.9 °F 81% 30.10 in 10.0 miles SSE 11.5 mph 18.4 mph 0.00 in   Partly Cloudy
11:53 PM 70.0 °F 64.9 °F 84% 30.10 in 10.0 miles SE 10.4 mph - N/A   Partly Cloudy

Powered by the Weather Underground, Inc.